TimeEDT,TemperatureF,Dew PointF,Humidity,Sea Level PressureIn,VisibilityMPH,Wind Direction,Wind SpeedMPH,Gust SpeedMPH,PrecipitationIn,Events,Conditions,WindDirDegrees,DateUTC
12:54 AM,57.9,55.9,93,30.04,10.0,Calm,Calm,-,N/A,,Overcast,0,2012-10-03 04:54:00
1:54 AM,57.0,55.0,93,30.04,6.0,NE,3.5,-,N/A,,Partly Cloudy,50,2012-10-03 05:54:00
2:17 AM,57.2,55.4,94,30.03,1.8,Calm,Calm,-,N/A,,Partly Cloudy,0,2012-10-03 06:17:00
2:25 AM,57.2,55.4,94,30.03,3.0,Calm,Calm,-,N/A,,Scattered Clouds,0,2012-10-03 06:25:00
2:35 AM,57.2,55.4,94,30.03,1.8,Calm,Calm,-,N/A,,Mostly Cloudy,0,2012-10-03 06:35:00
2:54 AM,57.0,55.9,96,30.04,6.0,Calm,Calm,-,N/A,,Overcast,0,2012-10-03 06:54:00
3:05 AM,57.2,55.4,94,30.04,7.0,Calm,Calm,-,N/A,,Overcast,0,2012-10-03 07:05:00
3:25 AM,57.2,55.4,94,30.04,10.0,Calm,Calm,-,N/A,,Overcast,0,2012-10-03 07:25:00
3:33 AM,57.2,55.4,94,30.04,10.0,Calm,Calm,-,N/A,,Overcast,0,2012-10-03 07:33:00
3:54 AM,57.9,55.9,93,30.04,10.0,Calm,Calm,-,N/A,,Overcast,0,2012-10-03 07:54:00
4:54 AM,57.9,55.9,93,30.05,9.0,Calm,Calm,-,N/A,,Overcast,0,2012-10-03 08:54:00
5:19 AM,57.2,55.4,94,30.05,10.0,Calm,Calm,-,N/A,,Overcast,0,2012-10-03 09:19:00
5:50 AM,57.2,55.4,94,30.05,10.0,Calm,Calm,-,N/A,,Overcast,0,2012-10-03 09:50:00
5:54 AM,57.9,55.9,93,30.05,10.0,Calm,Calm,-,N/A,,Overcast,0,2012-10-03 09:54:00
6:54 AM,57.9,55.9,93,30.06,10.0,Calm,Calm,-,N/A,,Overcast,0,2012-10-03 10:54:00
7:54 AM,59.0,55.9,90,30.07,10.0,NE,3.5,-,N/A,,Mostly Cloudy,50,2012-10-03 11:54:00
8:54 AM,59.0,57.0,93,30.08,10.0,North,4.6,-,N/A,,Mostly Cloudy,350,2012-10-03 12:54:00
9:13 AM,60.8,57.2,88,30.08,1.5,North,3.5,-,0.00,Rain,Light Rain,10,2012-10-03 13:13:00
9:21 AM,60.8,57.2,88,30.09,3.0,North,4.6,-,0.00,Rain,Light Rain,10,2012-10-03 13:21:00
9:28 AM,60.8,57.2,88,30.09,1.5,North,3.5,-,0.00,Rain,Light Rain,10,2012-10-03 13:28:00
9:43 AM,60.8,57.2,88,30.09,1.5,North,4.6,-,0.01,Rain,Light Rain,360,2012-10-03 13:43:00
9:51 AM,60.8,57.2,88,30.09,1.5,North,4.6,-,0.02,Rain,Light Rain,360,2012-10-03 13:51:00
9:54 AM,60.1,57.9,93,30.09,1.5,North,4.6,-,0.02,Rain,Light Rain,10,2012-10-03 13:54:00
10:07 AM,60.8,57.2,88,30.08,2.0,North,4.6,-,0.02,Rain,Light Rain,10,2012-10-03 14:07:00
10:16 AM,60.8,57.2,88,30.08,3.0,NNE,5.8,-,0.02,Rain,Light Rain,20,2012-10-03 14:16:00
10:23 AM,60.8,57.2,88,30.07,4.0,NE,4.6,-,0.02,Rain,Light Rain,40,2012-10-03 14:23:00
10:33 AM,60.8,57.2,88,30.08,2.0,North,4.6,-,0.02,Rain,Light Rain,10,2012-10-03 14:33:00
10:37 AM,60.8,57.2,88,30.08,1.8,NNW,3.5,-,0.03,Rain,Light Rain,340,2012-10-03 14:37:00
10:40 AM,60.8,57.2,88,30.08,2.0,North,4.6,-,0.03,Rain,Light Rain,360,2012-10-03 14:40:00
10:44 AM,60.8,57.2,88,30.08,3.0,Calm,Calm,-,0.03,Rain,Light Rain,0,2012-10-03 14:44:00
10:54 AM,61.0,57.9,90,30.08,7.0,NNW,3.5,-,0.03,,Overcast,340,2012-10-03 14:54:00
11:27 AM,60.8,59.0,94,30.08,1.2,NW,4.6,-,0.01,Rain,Rain,320,2012-10-03 15:27:00
11:39 AM,60.8,59.0,94,30.08,1.5,Calm,Calm,-,0.05,Rain,Rain,0,2012-10-03 15:39:00
11:47 AM,60.8,59.0,94,30.08,2.0,Calm,Calm,-,0.06,Rain,Light Rain,0,2012-10-03 15:47:00
11:49 AM,62.6,59.0,88,30.08,1.8,Calm,Calm,-,0.06,Rain,Light Rain,0,2012-10-03 15:49:00
11:54 AM,61.0,59.0,93,30.07,1.8,Calm,Calm,-,0.08,Rain,Rain,0,2012-10-03 15:54:00
12:02 PM,60.8,59.0,94,30.08,1.8,NNE,3.5,-,0.01,Rain,Light Rain,20,2012-10-03 16:02:00
12:10 PM,60.8,59.0,94,30.08,1.8,Calm,Calm,-,0.02,Rain,Light Rain,0,2012-10-03 16:10:00
12:35 PM,62.6,60.8,94,30.07,2.5,North,3.5,-,0.05,Rain,Light Rain,360,2012-10-03 16:35:00
12:46 PM,62.6,60.8,94,30.07,1.5,Calm,Calm,-,0.06,Rain,Light Rain,0,2012-10-03 16:46:00
12:54 PM,62.1,60.1,93,30.07,1.5,Calm,Calm,-,0.07,Rain,Light Rain,0,2012-10-03 16:54:00
1:02 PM,62.6,60.8,94,30.07,2.0,Calm,Calm,-,0.01,Rain,Light Rain,0,2012-10-03 17:02:00
1:54 PM,64.9,62.1,90,30.06,2.0,East,4.6,-,0.03,,Overcast,80,2012-10-03 17:54:00
2:08 PM,64.4,62.6,94,30.05,4.0,Calm,Calm,-,N/A,,Overcast,0,2012-10-03 18:08:00
2:47 PM,62.6,60.8,94,30.06,2.0,West,4.6,-,N/A,,Overcast,260,2012-10-03 18:47:00
2:54 PM,62.1,61.0,96,30.07,2.0,West,4.6,-,N/A,,Overcast,260,2012-10-03 18:54:00
3:01 PM,62.6,60.8,94,30.07,2.0,WSW,4.6,-,N/A,,Overcast,250,2012-10-03 19:01:00
3:16 PM,62.6,60.8,94,30.06,2.0,WSW,3.5,-,N/A,,Overcast,240,2012-10-03 19:16:00
3:54 PM,63.0,61.0,93,30.06,1.8,Calm,Calm,-,N/A,,Overcast,0,2012-10-03 19:54:00
4:54 PM,63.0,61.0,93,30.08,2.0,West,3.5,-,N/A,,Overcast,280,2012-10-03 20:54:00
5:54 PM,62.1,61.0,96,30.09,0.5,Calm,Calm,-,N/A,Fog,Fog,0,2012-10-03 21:54:00
6:11 PM,62.6,60.8,94,30.09,0.2,Calm,Calm,-,N/A,Fog,Fog,0,2012-10-03 22:11:00
6:35 PM,62.6,60.8,94,30.09,0.5,Calm,Calm,-,N/A,Fog,Fog,0,2012-10-03 22:35:00
6:42 PM,62.6,60.8,94,30.09,1.5,Calm,Calm,-,N/A,,Overcast,0,2012-10-03 22:42:00
6:54 PM,62.1,61.0,96,30.09,1.5,Calm,Calm,-,N/A,,Overcast,0,2012-10-03 22:54:00
7:07 PM,62.6,60.8,94,30.10,2.5,Calm,Calm,-,N/A,,Overcast,0,2012-10-03 23:07:00
7:54 PM,62.1,61.0,96,30.11,2.5,Calm,Calm,-,N/A,,Overcast,0,2012-10-03 23:54:00
8:19 PM,62.6,60.8,94,30.10,1.8,Calm,Calm,-,N/A,,Overcast,0,2012-10-04 00:19:00
8:54 PM,62.1,61.0,96,30.11,2.5,Calm,Calm,-,N/A,,Overcast,0,2012-10-04 00:54:00
9:38 PM,62.6,60.8,94,30.11,4.0,Calm,Calm,-,N/A,,Overcast,0,2012-10-04 01:38:00
9:54 PM,63.0,61.0,93,30.12,5.0,West,3.5,-,N/A,,Overcast,270,2012-10-04 01:54:00
10:50 PM,62.6,60.8,94,30.12,1.8,Calm,Calm,-,N/A,,Overcast,0,2012-10-04 02:50:00
10:54 PM,62.1,61.0,96,30.12,1.5,Calm,Calm,-,N/A,,Overcast,0,2012-10-04 02:54:00
11:45 PM,62.6,60.8,94,30.12,3.0,Calm,Calm,-,N/A,,Overcast,0,2012-10-04 03:45:00
11:54 PM,63.0,61.0,93,30.12,3.0,Calm,Calm,-,N/A,,Overcast,0,2012-10-04 03:54:00